[[{"header":{"parameterUnit":"m.s-1","parameterCategory":1,"la1":30.2991,"la2":30.254,"lo1":-89.0895,"lo2":-89.0444,"dy":0.0017,"dx":0.0017,"nx":28,"ny":28,"refTime":"2025-06-14T03:00:00:Z","depth":0,"parameterNumber":2,"parameterNumberName":"U-component_of_WINDS"},"data":[0,0,0,0,0,0,0,0,0,0,0,0,0,0,0,0,0,0,0,0,0,0,0,0,0,0,0,0,0,0,0,0,0,0,0,0,0,0,0,0,0,0,0,0,0,0,0,0,0,0,0,0,0,0,0,0,0,0,-1.7196,-1.7197,0,-1.7265,-1.7266,-1.7267,-1.7239,-1.7237,-1.7235,-1.7234,-1.7307,-1.7311,-1.7314,0,0,0,0,0,0,0,0,0,0,0,0,0,-1.7041,-1.7044,-1.7196,-1.7197,-1.7197,-1.7265,-1.7266,-1.7267,-1.7239,-1.7237,-1.7235,-1.7233,-1.7306,-1.731,-1.7314,0,0,0,0,0,0,0,0,0,0,0,0,0,-1.7109,-1.7045,-1.7196,-1.7191,-1.7192,-1.7265,-1.7266,-1.7268,-1.7239,-1.7237,-1.7234,-1.7232,-1.7305,-1.731,-1.7315,-1.7397,0,0,-1.7331,-1.7333,0,0,0,0,0,0,0,0,-1.7105,-1.7115,-1.7191,-1.7192,-1.7192,-1.7241,-1.7239,-1.7311,-1.724,-1.7221,-1.7234,-1.7231,-1.7287,-1.7294,-1.7312,-1.7401,-1.7404,-1.7332,-1.7335,-1.7337,-1.7338,0,0,0,0,0,0,0,-1.7101,-1.7112,-1.7223,-1.7192,-1.7193,-1.7187,-1.7194,-1.7252,-1.7268,-1.7223,-1.7221,-1.7229,-1.7287,-1.7307,-1.7314,-1.7405,-1.7331,-1.7336,-1.7339,-1.7341,-1.7565,-1.7568,0,0,0,0,0,0,-1.7096,-1.7108,-1.7221,-1.7225,-1.7142,-1.7192,-1.72,-1.7228,-1.7267,-1.727,-1.7231,-1.7228,-1.73,-1.7308,-1.7316,-1.7415,-1.7337,-1.7342,-1.7345,-1.7562,-1.7566,-1.7569,0,0,0,0,0,0,-1.7092,-1.7106,-1.7218,-1.7166,-1.718,-1.7197,-1.7229,-1.723,-1.7251,-1.7273,-1.7276,-1.7249,-1.7298,-1.7309,-1.7377,-1.7417,-1.7344,-1.7349,-1.7559,-1.7563,-1.7567,-1.7613,0,0,0,0,0,0,-1.7088,-1.7105,-1.7135,-1.7167,-1.7183,-1.7277,-1.7232,-1.7234,-1.7259,-1.7255,-1.7291,-1.7294,-1.7297,-1.737,-1.7383,-1.7423,-1.7353,-1.7555,-1.7561,-1.7566,-1.7608,-1.7618,-1.7627,0,0,0,0,0,-1.7083,-1.7146,-1.7137,-1.7151,-1.7221,-1.728,-1.7289,-1.729,-1.7263,-1.7294,-1.7309,-1.7293,-1.7411,-1.7377,-1.7391,-1.7434,-1.7553,-1.7559,-1.7565,-1.7604,-1.7616,-1.7627,0,0,0,0,0,0,-1.7119,-1.715,-1.714,-1.7216,-1.7245,-1.7275,-1.7314,-1.7303,-1.7341,-1.7336,-1.7337,-1.7345,-1.7416,-1.7432,-1.7393,-1.7516,-1.7478,-1.7488,-1.7502,-1.7515,-1.7524,-1.7518,-1.7357,0,0,0,0,0,-1.7136,-1.7179,-1.7205,-1.7269,-1.7284,-1.7297,-1.7322,-1.7321,-1.7351,-1.7364,-1.7383,-1.7415,-1.7459,-1.7488,-1.753,-1.7611,-1.7619,-1.7648,-1.7657,-1.7665,-1.7673,-1.7718,-1.7731,-1.7589,-1.7589,-1.7589,0,0,-1.717,-1.7193,-1.722,-1.7277,-1.7299,-1.7345,-1.7307,-1.7357,-1.7392,-1.7372,-1.7437,-1.7453,-1.7488,-1.7563,-1.7597,-1.7579,-1.7714,-1.7673,-1.7679,-1.7683,-1.7726,-1.7739,-1.7751,-1.7594,-1.7593,-1.7592,0,0,-1.7257,-1.7279,-1.7334,-1.7358,-1.7393,-1.7401,-1.7415,-1.7446,-1.7456,-1.7521,-1.7507,-1.7549,-1.7625,-1.7651,-1.7674,-1.7773,-1.776,-1.7787,-1.7836,-1.788,-1.7891,-1.7901,-1.7936,-1.7948,-1.7795,-1.7795,-1.7795,0,-1.7296,-1.7364,-1.7365,-1.7416,-1.7441,-1.7425,-1.7482,-1.7506,-1.7553,-1.7571,-1.755,-1.7646,-1.7668,-1.7749,-1.7773,-1.7793,-1.7809,-1.7782,-1.7889,-1.7899,-1.7908,-1.7942,-1.7955,-1.7798,-1.7797,-1.7797,-1.7797,0,-1.7411,-1.7458,-1.7499,-1.7544,-1.7575,-1.7629,-1.7638,-1.7669,-1.7666,-1.7677,-1.7745,-1.7772,-1.7819,-1.7839,-1.7836,-1.792,-1.7907,-1.7888,-1.7849,-1.7925,-1.7956,-1.7969,-1.7802,-1.7801,-1.78,-1.7799,0,0,-1.752,-1.7566,-1.7581,-1.7601,-1.7639,-1.7676,-1.7731,-1.7776,-1.7803,-1.7837,-1.7882,-1.7948,-1.793,-1.7957,-1.7957,-1.7996,-1.8072,-1.7972,-1.7972,-1.7989,-1.8167,-1.8181,-1.8195,-1.8065,-1.8067,-1.8069,-1.8164,0,-1.761,-1.7703,-1.7706,-1.7791,-1.7836,-1.7822,-1.787,-1.7899,-1.7911,-1.7951,-1.7966,-1.8012,-1.7985,-1.8001,-1.8039,-1.8055,-1.8108,-1.8049,-1.8108,-1.811,-1.8098,-1.8212,-1.8226,-1.8314,-1.8176,-1.8178,-1.818,0,-1.7725,-1.7762,-1.7852,-1.7884,-1.7903,-1.7945,-1.7988,-1.8026,-1.806,-1.8066,-1.8096,-1.8092,-1.8149,-1.811,-1.8188,-1.8148,-1.8173,-1.8185,-1.8188,-1.8193,-1.8148,-1.8219,-1.8342,-1.8355,-1.8199,-1.8198,-1.8196,0,-1.7796,-1.7868,-1.7931,-1.7949,-1.7988,-1.8019,-1.8037,-1.8067,-1.8095,-1.8133,-1.8151,-1.8196,-1.822,-1.8256,-1.8264,-1.8235,-1.8343,-1.8304,-1.835,-1.835,-1.8372,-1.837,-1.85,-1.839,-1.839,-1.8389,-1.8389,0,-1.7894,-1.795,-1.7963,-1.8002,-1.8064,-1.8068,-1.813,-1.8146,-1.8174,-1.8216,-1.8209,-1.8249,-1.8258,-1.8301,-1.8308,-1.8372,-1.8383,-1.8391,-1.8392,-1.8391,-1.839,-1.8406,-1.84,-1.8393,-1.8392,-1.8392,-1.8391,0,-1.7982,-1.7994,-1.8061,-1.8093,-1.8103,-1.8147,-1.8175,-1.8213,-1.8225,-1.8279,-1.8292,-1.8312,-1.8362,-1.8374,-1.8434,-1.8438,-1.8514,-1.851,-1.8502,-1.8502,-1.8547,-1.8542,-1.8691,-1.871,-1.8588,-1.8589,-1.859,0,-1.8044,-1.8086,-1.8123,-1.815,-1.8169,-1.8214,-1.8242,-1.8248,-1.8278,-1.832,-1.8353,-1.8402,-1.8441,-1.8522,-1.8542,-1.8589,-1.8585,-1.8634,-1.8592,-1.859,-1.8585,-1.8582,-1.8586,-1.8641,-1.8643,-1.8644,-1.8645,0,-1.8152,-1.8155,-1.8195,-1.8238,-1.8272,-1.8306,-1.8339,-1.8362,-1.8373,-1.8408,-1.8458,-1.8489,-1.855,-1.8599,-1.8646,-1.8666,-1.8658,-1.8658,-1.8671,-1.867,-1.8663,-1.8667,-1.8523,-1.8654,-1.8653,-1.8653,-1.8652,-1.8652,-1.8228,-1.8265,-1.8296,-1.8342,-1.8367,-1.8398,-1.8435,-1.8452,-1.8494,-1.8543,-1.8545,-1.8601,-1.8635,-1.8696,-1.8719,-1.8764,-1.8749,-1.8767,-1.8772,-1.8776,-1.878,-1.8657,-1.8772,-1.8772,-1.8772,-1.8772,-1.8771,0,-1.8335,-1.8355,-1.8397,-1.8442,-1.8478,-1.8467,-1.8503,-1.8535,-1.8583,-1.8615,-1.8654,-1.8713,-1.8761,-1.8785,-1.8833,-1.8864,-1.8862,-1.8876,-1.8873,-1.8878,-1.8791,-1.8774,-1.8877,-1.8877,-1.8877,-1.8877,-1.8877,-1.8877,-1.8395,-1.8457,-1.8464,-1.854,-1.8559,-1.8612,-1.8634,-1.8663,-1.8689,-1.8754,-1.8794,-1.8809,-1.8839,-1.8889,-1.8933,-1.8939,-1.8957,-1.8974,-1.8978,-1.8895,-1.8884,-1.8874,-1.8859,-1.8978,-1.8978,-1.9062,-1.9062,-1.9063]},{"header":{"parameterUnit":"m.s-1","parameterCategory":1,"la1":30.2991,"la2":30.254,"lo1":-89.0895,"lo2":-89.0444,"dy":0.0017,"dx":0.0017,"nx":28,"ny":28,"refTime":"2025-06-14T03:00:00:Z","depth":0,"parameterNumber":3,"parameterNumberName":"V-component_of_WINDS"},"data":[0,0,0,0,0,0,0,0,0,0,0,0,0,0,0,0,0,0,0,0,0,0,0,0,0,0,0,0,0,0,0,0,0,0,0,0,0,0,0,0,0,0,0,0,0,0,0,0,0,0,0,0,0,0,0,0,0,0,5.4435,5.4435,0,5.4483,5.4484,5.4484,5.4516,5.4516,5.4517,5.4517,5.4562,5.4563,5.4564,0,0,0,0,0,0,0,0,0,0,0,0,0,5.4365,5.4366,5.4435,5.4435,5.4436,5.4483,5.4484,5.4485,5.4516,5.4517,5.4517,5.4517,5.4562,5.4563,5.4564,0,0,0,0,0,0,0,0,0,0,0,0,0,5.4403,5.4367,5.4434,5.4457,5.446,5.4483,5.4484,5.4485,5.4516,5.4517,5.4517,5.4517,5.4562,5.4563,5.4565,5.4567,0,0,5.4569,5.457,0,0,0,0,0,0,0,0,5.4401,5.4405,5.4453,5.4456,5.4459,5.4494,5.4476,5.4512,5.4516,5.4495,5.4517,5.4517,5.4539,5.4542,5.4551,5.4569,5.4571,5.4569,5.457,5.4571,5.4571,0,0,0,0,0,0,0,5.4398,5.4403,5.4454,5.4454,5.4457,5.4464,5.447,5.4483,5.4514,5.4497,5.4499,5.4505,5.4541,5.4549,5.4552,5.4572,5.4569,5.4571,5.4571,5.4572,5.4596,5.4596,0,0,0,0,0,0,5.4392,5.4401,5.4452,5.4455,5.443,5.4465,5.4471,5.4482,5.4514,5.452,5.4504,5.4506,5.4546,5.455,5.4554,5.456,5.4571,5.4572,5.4573,5.4596,5.4596,5.4596,0,0,0,0,0,0,5.4391,5.4397,5.445,5.4429,5.4436,5.4466,5.4478,5.4483,5.4492,5.452,5.4525,5.4508,5.4547,5.4552,5.4564,5.4562,5.4573,5.4574,5.4597,5.4596,5.4596,5.4571,0,0,0,0,0,0,5.4389,5.4396,5.4398,5.4429,5.4437,5.4461,5.4478,5.4484,5.4495,5.4498,5.4525,5.4529,5.4547,5.4562,5.4566,5.4564,5.4575,5.4597,5.4596,5.4596,5.4572,5.457,5.4568,0,0,0,0,0,5.4386,5.4388,5.4398,5.4404,5.4441,5.4461,5.4465,5.4487,5.4495,5.4497,5.4515,5.4529,5.4561,5.4563,5.4567,5.4566,5.4597,5.4597,5.4596,5.4573,5.457,5.4568,0,0,0,0,0,0,5.4354,5.4392,5.4404,5.4416,5.4435,5.4466,5.4469,5.4483,5.45,5.4501,5.4527,5.4532,5.4542,5.4555,5.4556,5.4571,5.4581,5.4581,5.4562,5.4559,5.4557,5.4553,5.4577,0,0,0,0,0,5.4348,5.4363,5.4395,5.4402,5.4412,5.4439,5.4448,5.4464,5.4484,5.4492,5.4511,5.4529,5.4543,5.4552,5.4567,5.4574,5.458,5.4576,5.4573,5.4571,5.4571,5.4576,5.4575,5.4594,5.4594,5.4594,0,0,5.4337,5.436,5.4367,5.4397,5.4413,5.4427,5.4445,5.4458,5.4468,5.4493,5.4507,5.4521,5.4543,5.4553,5.4559,5.4564,5.4567,5.4571,5.4569,5.457,5.4576,5.4574,5.4572,5.4593,5.4593,5.4593,0,0,5.4323,5.4341,5.435,5.4367,5.4393,5.4411,5.4413,5.4442,5.4454,5.4468,5.4488,5.4499,5.4523,5.4538,5.4549,5.4542,5.4555,5.4546,5.4534,5.4539,5.4537,5.4536,5.4533,5.4532,5.4545,5.4545,5.4545,0,5.4304,5.4327,5.4352,5.4365,5.4377,5.4403,5.4411,5.4426,5.4454,5.4462,5.4468,5.45,5.4516,5.4531,5.4529,5.4537,5.454,5.4542,5.4536,5.4535,5.4534,5.4532,5.4531,5.4544,5.4544,5.4544,5.4544,0,5.4303,5.4318,5.4322,5.4351,5.4364,5.4374,5.44,5.441,5.4425,5.4442,5.4456,5.4477,5.4497,5.4502,5.4515,5.4518,5.4521,5.4531,5.4542,5.453,5.4529,5.4528,5.4542,5.4543,5.4543,5.4543,0,0,5.4269,5.4313,5.4314,5.4328,5.4359,5.4371,5.4382,5.4403,5.4411,5.443,5.444,5.446,5.4471,5.4483,5.4498,5.4503,5.4496,5.4513,5.4514,5.4509,5.4501,5.4492,5.4491,5.4505,5.4505,5.4505,5.4499,0,5.4259,5.4283,5.4307,5.4321,5.4335,5.436,5.437,5.439,5.4406,5.442,5.4437,5.4452,5.4464,5.4472,5.4477,5.4496,5.4495,5.4497,5.4514,5.4514,5.4507,5.449,5.4482,5.4474,5.4498,5.4498,5.4498,0,5.4251,5.4271,5.4287,5.4318,5.4325,5.4334,5.4355,5.4368,5.4391,5.4403,5.4417,5.4434,5.4446,5.4456,5.4473,5.4474,5.4482,5.4493,5.4493,5.4495,5.4505,5.4492,5.4473,5.4471,5.4497,5.4497,5.4497,0,5.4224,5.4255,5.4269,5.428,5.4317,5.4322,5.4337,5.436,5.4372,5.439,5.4398,5.4417,5.4427,5.4441,5.4462,5.4468,5.4477,5.4489,5.4487,5.4486,5.4487,5.4486,5.4469,5.4493,5.4493,5.4493,5.4493,0,5.4211,5.422,5.4258,5.4267,5.4278,5.4305,5.4314,5.4331,5.4352,5.4364,5.4386,5.4396,5.4424,5.4437,5.4454,5.4465,5.447,5.4479,5.4483,5.4477,5.4476,5.4482,5.4483,5.4492,5.4493,5.4493,5.4493,0,5.4183,5.4209,5.4226,5.426,5.4268,5.4275,5.4303,5.4312,5.433,5.4345,5.435,5.4378,5.4395,5.4418,5.4441,5.4452,5.4462,5.4469,5.4455,5.4457,5.4454,5.4454,5.4439,5.4439,5.4463,5.4463,5.4463,0,5.4172,5.418,5.4216,5.4226,5.4241,5.4257,5.4269,5.4296,5.4308,5.4335,5.434,5.436,5.4376,5.4401,5.4423,5.4441,5.4449,5.4443,5.4451,5.4445,5.4449,5.4448,5.4449,5.444,5.444,5.4439,5.4439,0,5.4151,5.4164,5.4182,5.4205,5.422,5.4239,5.4258,5.4265,5.4296,5.4308,5.4327,5.434,5.4365,5.4383,5.4404,5.4418,5.4433,5.4436,5.4437,5.443,5.4422,5.4426,5.4449,5.4436,5.4437,5.4437,5.4437,5.4437,5.4132,5.414,5.4167,5.4186,5.4205,5.4223,5.4233,5.4254,5.427,5.4294,5.4309,5.4326,5.4349,5.4379,5.4393,5.4406,5.4413,5.4413,5.4413,5.4413,5.4411,5.442,5.441,5.441,5.441,5.4411,5.4411,0,5.4112,5.4131,5.4149,5.4176,5.4192,5.4207,5.423,5.4241,5.4257,5.4278,5.4294,5.4316,5.4334,5.4358,5.4377,5.4383,5.4391,5.4388,5.4387,5.439,5.4404,5.4402,5.4381,5.4381,5.4381,5.4381,5.4381,5.4381,5.4103,5.4119,5.4135,5.416,5.4178,5.4197,5.4209,5.4226,5.4243,5.4266,5.4282,5.4298,5.432,5.4342,5.4359,5.4365,5.4371,5.4366,5.4374,5.4386,5.4389,5.4392,5.439,5.4367,5.4367,5.4359,5.4359,5.4359]}]]